Location: Luxembourg
(49.6117°N, 6.1300°E)
Time: 06:38:30
(UTC+02:00)

ISS - Visible Passes

Search period start: 09 May 2021 00:00
Search period end: 19 May 2021 00:00
Orbit: 418 x 421 km, 51.6° (Epoch: 08 May)

Date Brightness Start Highest point End Pass type
(mag) Time Alt. Az. Time Alt. Az. Time Alt. Az.
09 May -1.6 02:03:26 19° E 02:03:26 19° E 02:04:34 10° ENE visible
09 May -3.3 03:36:22 26° W 03:38:05 62° N 03:41:27 10° ENE visible
09 May -3.5 05:11:42 10° WNW 05:15:05 74° NNE 05:18:29 10° E visible
10 May -3.6 02:50:23 67° NW 02:50:36 71° NNW 02:53:59 10° ENE visible
10 May -3.3 04:24:15 10° WNW 04:27:37 64° N 04:31:00 10° E visible
11 May -2.6 02:04:21 37° ENE 02:04:21 37° ENE 02:06:33 10° ENE visible
11 May -3.2 03:37:17 13° WNW 03:40:08 59° N 03:43:30 10° E visible
11 May -3.8 05:13:40 10° WNW 05:17:02 69° SSW 05:20:24 10° ESE visible
12 May -1.4 01:18:16 16° ENE 01:18:16 16° ENE 01:19:05 10° ENE visible
12 May -3.2 02:51:12 30° WNW 02:52:39 59° N 02:56:00 10° E visible
12 May -3.8 04:26:14 10° WNW 04:29:37 90° S 04:33:00 10° ESE visible
13 May -3.3 02:05:02 61° NNW 02:05:09 62° N 02:08:31 10° ENE visible
13 May -3.6 03:38:47 10° WNW 03:42:10 74° NNE 03:45:33 10° E visible
13 May -3.1 05:15:43 10° W 05:18:51 34° SSW 05:21:56 10° SE visible
14 May -2.8 01:18:38 42° ENE 01:18:38 42° ENE 01:21:03 10° ENE visible
14 May -3.4 02:51:31 11° WNW 02:54:41 64° N 02:58:03 10° E visible
14 May -3.6 04:28:12 10° WNW 04:31:29 49° SSW 04:34:46 10° SE visible
14 May -2.8 22:50:45 10° SSW 22:53:37 27° SE 22:55:40 15° E visible
15 May -3.8 00:26:49 10° WSW 00:30:12 85° NNW 00:33:36 10° ENE visible
15 May -3.2 02:03:51 10° WNW 02:07:11 59° N 02:10:33 10° E visible
15 May -3.9 03:40:44 10° WNW 03:44:05 69° SSW 03:47:27 10° ESE visible
15 May -2.3 22:03:57 10° S 22:06:21 18° SE 22:08:46 10° E visible
15 May -3.9 23:39:24 10° WSW 23:42:46 75° SSE 23:46:08 10° ENE visible
16 May -3.2 01:16:21 10° W 01:19:41 59° N 01:23:02 10° E visible
16 May -3.9 02:53:16 10° WNW 02:56:40 89° SSW 03:00:03 10° ESE visible
16 May -2.6 04:30:24 10° W 04:33:12 24° SW 04:35:58 10° SSE visible
16 May -3.7 22:52:03 10° SW 22:55:21 55° SSE 22:58:40 10° ENE visible
17 May -3.3 00:28:50 10° W 00:32:11 62° N 00:35:33 10° ENE visible
17 May -3.6 02:05:49 10° WNW 02:09:12 74° NNE 02:12:35 10° E visible
17 May -3.2 03:42:46 10° W 03:45:53 34° SSW 03:48:58 10° SE visible
17 May -3.3 22:04:50 10° SW 22:07:59 38° SSE 22:11:10 10° E visible
17 May -3.5 23:41:20 10° W 23:44:42 70° NNW 23:48:05 10° ENE visible
18 May -3.4 01:18:21 10° WNW 01:21:43 64° N 01:22:56 35° ENE visible
18 May -1.4 02:55:14 10° WNW 02:55:49 14° W 02:55:49 14° W visible
18 May -3.7 22:53:51 10° WSW 22:57:14 85° NNW 23:00:37 10° ENE visible
